Location: ????????
(55.0559°N, 39.1270°E)
Time: 01:00:35
(UTC+00:00)

Cosmos 1420 Rocket - Pass Details

Date: 15 November 2025
Orbit: 750 x 776 km, 74.0° (Epoch: 12 December)

Event Time Altitude Azimuth Distance (km) Brightness Sun altitude
Exits shadow 02:57:45 14° 231° (SW) 2,048 5.8 -16.5°
Maximum altitude 03:02:10 52° 305° (NW) 965 4.2 -15.9°
Drops below altitude 10° 03:07:22 10° 22° (NNE) 2,340 6.6 -15.2°
Sets 03:09:50 0° 27° (NNE) 3,272 7.5 -14.8°
